Home   Weather   Kelowna   Past weeks
Flag for Canada

Past Weather in Kelowna, British Columbia, Canada — Yesterday and Last 2 Weeks

Now
43 °F

Passing clouds.


Feels Like: 41 °F
Forecast: 45 / 29 °F
Wind: 3 mph from North

Location: Kelowna Airport

Current Time: Apr 2, 2020 at 7:25:55 pm

Latest Report: Apr 2, 2020 at 6:00 pm


Visibility: 9 mi

Pressure: 30.09 "Hg

Humidity: 46%

Dew Point: 23 °F

Location of KelownaLocation

Past Weather in Kelowna — Graph

°F

Kelowna Temperature Yesterday

Maximum temperature yesterday: 39 °F (at 2:00 pm)
Minimum temperature yesterday: 25 °F (at 10:00 pm)
Average temperature yesterday: 32 °F

High & Low Weather Summary for the Past Weeks

 TemperatureHumidityPressure
High59 °F (Mar 29, 1:23 pm)93% (Mar 20, 5:00 am)30.34 "Hg (Mar 20, 5:00 am)
Low16 °F (Apr 2, 7:00 am)16% (Mar 21, 6:00 pm)29.54 "Hg (Mar 30, 9:32 am)
Average40 °F57%29.94 "Hg
* Reported Mar 18 6:00 pm — Apr 2 6:00 pm, Kelowna. Weather by CustomWeather, © 2020

Note: Actual official high and low records may vary slightly from our data, if they occured in-between our weather recording intervals... More about our weather records

Kelowna Weather History for the Previous 24 Hours

Scroll right to see more
 ConditionsComfort  
Time TempWeatherWind HumidityBarometerVisibility
6:00 pm
Thu, Apr 2
43 °FPassing clouds.3 mph46%30.09 "Hg9 mi
4:00 pm43 °FPartly sunny.10 mph31%30.11 "Hg9 mi
3:00 pm41 °FPartly sunny.2 mph28%30.13 "Hg9 mi
2:00 pm41 °FSunny.2 mph28%30.15 "Hg9 mi
1:00 pm39 °FSunny.6 mph30%30.17 "Hg9 mi
12:00 pm37 °FSunny.3 mph33%30.21 "Hg9 mi
11:00 am34 °FSunny.3 mph38%30.23 "Hg9 mi
10:00 am30 °FSunny.2 mph47%30.26 "Hg9 mi
9:00 am28 °FSunny.2 mph55%30.26 "Hg9 mi
8:00 am23 °FSunny.No wind68%30.27 "Hg9 mi
7:00 am16 °FSunny.2 mph79%30.27 "Hg9 mi
6:00 am18 °FClear.3 mph79%30.25 "Hg9 mi
5:00 am18 °FClear.No wind79%30.24 "Hg9 mi
4:00 am21 °FClear.No wind74%30.23 "Hg9 mi
3:00 am21 °FPassing clouds.No wind74%30.23 "Hg9 mi
2:00 am19 °FClear.No wind79%30.23 "Hg9 mi
1:00 am25 °FClear.2 mph63%30.22 "Hg9 mi
12:00 am21 °FPassing clouds.2 mph74%30.21 "Hg9 mi
11:00 pm
Wed, Apr 1
25 °FOvercast.3 mph63%30.20 "Hg9 mi
10:00 pm25 °FClear.3 mph63%30.19 "Hg9 mi
9:00 pm28 °FClear.2 mph51%30.19 "Hg9 mi
8:00 pm32 °FPassing clouds.5 mph40%30.18 "Hg9 mi
7:00 pm36 °FPartly sunny.14 mph35%30.17 "Hg9 mi
Weather by CustomWeather, © 2020

See weather overview

Advertising